Location: Guilderland
(42.7045°N, 73.9115°W)
Time: 03:26:51
(UTC+00:00)

Cosmos 44 Rocket - Pass Details

Date: 24 January 2020
Orbit: 660 x 730 km, 65.1° (Epoch: 17 February)

Event Time Altitude Azimuth Distance (km) Brightness Sun altitude
Rises 23:46:18 0° 195° (SSW) 3,037 6.9 -19.8°
Reaches altitude 10° 23:48:43 10° 190° (S) 2,115 6.0 -20.2°
Enters shadow 23:53:16 46° 118° (ESE) 901 3.5 -21.1°
